Aerodome Info

Curfews-

Aldinga Airfield operates under two simultaneous & overlapping curfews imposed by the Onkaparinga Council & the EPA. Breach of the the latter curfew carries financial penalties.

  • Council curfew- No operations between 10pm & sunrise (not first light).
  • EPA curfew- No operations between 9pm & 6am during daylight saving, 9pm to 7am other times. Landings only can be conducted until 10pm. Go arounds are not restricted. Continuous circuit operations are not permitted on most public holidays (note this includes December 25/26 2016 & January 1st 2017)

Runway lengths-

Runway 03/ 21- 912m, not including the turnaround nodes. These give at least another 25m of sealed surface at each end.
Runway 14/ 32- 840m.
For Aldinga Airfield first time users- the following notes should be read in conjunction with current documentation.

  • Unmarked low height airfield boundary fences are near the thresholds of runways 18, 21, 26 & 14. Avoid undershoots.
  • Strong south-easterly winds are prevalent during the months of November to March. Beware these winds often cause downdrafts on approach & departure to/ from runway 14.
  • Right hand circuits are flown on runways 18/ 21/ 26. Should a left circuit be operationally required on runway 21, this will be flown over noticably higher terrain.
  • There is a noise sensitive area to the south east of the airfield. Avoid overflight where possible.
  • After heavy rain the unsealed areas may become unusable for some time. Please contact Adelaide Biplanes to ascertain the condition of these areas if operationally required.
  • Even in dry weather, there are soft areas off the taxiways & runways that may not withstand the weight of an aircraft. Taxiing off the marked areas should only take place after an inspection of the proposed taxi route.
  • Only runway 03/ 21 (sealed) has standard runway markings (edge & threshold).
  • There is a grass airstrip immediately alongside (on the south eastern side) the sealed runway, runway 21.
  • There is a small but infrequently used grass north/ south runway half a mile to the west of Aldinga airfield. Users will broadcast on the Aldinga CTAF frequency 127.15.
  • In fine weather, circuit traffic can be heavy. Continuous circuit traffic will attempt to facilitate arrivals & departures.

Runway Approaches

Runway 03

03

21

32

14

Other Local Aerodome WX Info

Adelaide

TAF YPAD 271108Z 2712/2818 20008KT 9999 SCT025 BKN035 FM271900 VRB05KT 9999 -SHRA SCT015 BKN025 FM272300 20010KT 9999 NSW SCT025 BKN035 FM280300 22014KT 9999 SCT035 FM281000 14010KT 9999 FEW040 FM281400 VRB05KT CAVOK INTER 2719/2723 5000 SHRA BKN012 RMK T 18 17 17 17 Q 1016 1016 1016 1017

Parafield

TAF YPPF 271101Z 2712/2800 20008KT 9999 SCT025 BKN035 FM272000 VRB05KT 9999 -SHRA SCT015 BKN025 FM272300 20010KT 9999 NSW SCT025 BKN035 INTER 2720/2800 5000 SHRA BKN012 RMK T 18 16 16 17 Q 1016 1016 1016 1017

Kingscote

TAF AMD YKSC 271046Z 2712/2800 22005KT 9999 -SHRA BKN030 FM271400 21005KT 9999 -SHRA SCT015 BKN020 INTER 2716/2800 5000 SHRA SCT012 BKN015 RMK T 17 15 15 15 Q 1017 1017 1016 1018

Murray Bridge

TAF YMBD 270136Z 2702/2714 20016KT 9999 FEW045 FM271000 22010KT 9999 SCT020 RMK T 21 22 20 17 Q 1016 1014 1014 1016